Eugene, OR

6:33 PM PST on December 08, 2019 (GMT -0800)
Mahlon Sweet

Weather History for KEUG - November, 2019

Change the Weather History Date:

Thursday, November 14, 2019

  Actual Average Record
Temperature  
Mean Temperature 50 °F 45 °F  
Max Temperature 53 °F 53 °F 68 °F (1912)
Min Temperature 47 °F 38 °F 14 °F (1978)
Degree Days  
Heating Degree Days 15 20  
Month to date heating degree days 264 256  
Since 1 July heating degree days 860 826  
Cooling Degree Days 0 0  
Month to date cooling degree days 0 0  
Year to date cooling degree days 353 239  
Moisture  
Dew Point 45 °F    
Average Humidity 88    
Maximum Humidity 93    
Minimum Humidity 83    
Precipitation  
Precipitation 0.00 in 0.26 in 1.70 in (1941)
Month to date precipitation T 3.18  
Year to date precipitation 29.74 33.73  
Sea Level Pressure  
Sea Level Pressure 30.03 in    
Wind  
Wind Speed 4 mph (East)    
Max Wind Speed 9 mph    
Max Gust Speed 11 mph    
Visibility 3 miles    
Events Fog    
T = Trace of Precipitation, MM = Missing Value Source: NWS Daily Summary

Daily Weather History Graph

Daily Weather History Graph

Search for Another Location

Airport or City:

Astronomy

Nov. 14, 2019 Rise Set
Actual Time 7:06 AM PST 4:47 PM PST
Civil Twilight 6:35 AM PST 5:18 PM PST
Nautical Twilight 6:00 AM PST 5:53 PM PST
Astronomical Twilight 5:26 AM PST 6:27 PM PST
Moon 6:34 PM PST (11/14) 9:10 AM PST (11/14)
Length of Visible Light 10h 42m
Length of Day
9h 40m
Waning Gibbous, 95% of the Moon is Illuminated
Nov 14
Waning Gibbous
Nov 19
Last Quarter
Nov 26
New
Dec 3
First Quarter
Dec 11
Full

Hourly Weather History & Observations

Time (PST) Temp. Windchill Dew Point Humidity Pressure Visibility Wind Dir Wind Speed Gust Speed Precip Events Conditions
12:08 AM 48.9 °F - 46.0 °F 90% 30.03 in 1.8 mi Calm Calm - N/A   Overcast
12:14 AM 48.9 °F - 46.9 °F 93% 30.02 in 0.8 mi Calm Calm - N/A   Overcast
12:30 AM 48.0 °F - 46.9 °F 96% 30.02 in 1.2 mi Calm Calm - N/A   Overcast
12:37 AM 48.9 °F - 46.9 °F 93% 30.02 in 2.0 mi Calm Calm - N/A   Overcast
12:51 AM 48.2 °F - 46.4 °F 93% 30.02 in 1.5 mi NE 3.5 mph - N/A   Overcast
12:54 AM 48.9 °F - 46.0 °F 90% 30.02 in 1.5 mi NE 3.5 mph - N/A   Overcast
1:25 AM 48.9 °F - 46.9 °F 93% 30.02 in 1.0 mi Calm Calm - N/A   Overcast
1:40 AM 48.9 °F - 46.9 °F 93% 30.02 in 2.0 mi Calm Calm - N/A   Overcast
1:54 AM 48.9 °F - 46.9 °F 93% 30.02 in 2.0 mi Calm Calm - N/A   Overcast
2:00 AM 48.9 °F - 46.9 °F 93% 30.02 in 1.2 mi NNE 3.5 mph - N/A   Overcast
2:13 AM 48.0 °F - 46.9 °F 96% 30.02 in 2.0 mi Calm Calm - N/A   Overcast
2:54 AM 48.9 °F - 46.0 °F 90% 30.03 in 3.0 mi North 4.6 mph - N/A   Overcast
3:21 AM 48.0 °F - 46.0 °F 93% 30.02 in 2.0 mi North 3.5 mph - N/A   Overcast
3:31 AM 48.0 °F - 46.0 °F 93% 30.02 in 1.5 mi North 3.5 mph - N/A   Overcast
3:52 AM 48.2 °F - 46.4 °F 93% 30.01 in 0.8 mi North 3.5 mph - N/A   Mist
3:54 AM 48.0 °F - 46.0 °F 93% 30.01 in 0.8 mi North 3.5 mph - N/A   Mist
4:54 AM 48.0 °F - 46.0 °F 93% 30.03 in 0.5 mi North 4.6 mph - N/A Fog Fog
5:54 AM 48.0 °F - 46.0 °F 93% 30.02 in 0.5 mi NNE 5.8 mph - N/A Fog Fog
6:54 AM 48.0 °F - 46.0 °F 93% 30.03 in 0.5 mi NNE 4.6 mph - N/A Fog Fog
7:54 AM 48.0 °F - 46.0 °F 93% 30.04 in 0.5 mi North 4.6 mph - N/A Fog Fog
8:54 AM 48.0 °F - 46.0 °F 93% 30.04 in 1.2 mi North 4.6 mph - N/A   Mist
9:17 AM 48.9 °F - 46.0 °F 90% 30.04 in 2.0 mi North 3.5 mph - N/A   Mist
9:54 AM 48.9 °F - 45.0 °F 86% 30.03 in 2.5 mi North 3.5 mph - N/A   Overcast
10:51 AM 48.2 °F - 46.4 °F 93% 30.03 in 3.0 mi Calm Calm - N/A   Overcast
10:54 AM 48.9 °F - 46.0 °F 90% 30.03 in 3.0 mi Calm Calm - N/A   Overcast
11:54 AM 50.0 °F - 46.0 °F 86% 30.02 in 3.0 mi Calm Calm - N/A   Overcast
12:54 PM 51.1 °F - 46.0 °F 83% 30.02 in 3.0 mi Calm Calm - N/A   Haze
1:54 PM 51.1 °F - 46.9 °F 86% 30.03 in 5.0 mi South 6.9 mph - N/A   Overcast
2:54 PM 52.0 °F - 46.9 °F 83% 30.03 in 8.0 mi SE 4.6 mph - N/A   Mostly Cloudy
3:12 PM 52.0 °F - 46.9 °F 83% 30.03 in 9.0 mi SE 5.8 mph - N/A   Mostly Cloudy
3:54 PM 52.0 °F - 46.9 °F 83% 30.03 in 9.0 mi SE 9.2 mph - N/A   Mostly Cloudy
4:54 PM 51.1 °F - 46.9 °F 86% 30.03 in 10.0 mi SE 8.1 mph - N/A   Mostly Cloudy
5:54 PM 48.0 °F - 45.0 °F 89% 30.04 in 9.0 mi South 6.9 mph - N/A   Mostly Cloudy
6:54 PM 46.0 °F 43.9 °F 43.0 °F 89% 30.04 in 6.0 mi SE 4.6 mph - N/A   Scattered Clouds
7:54 PM 46.9 °F - 45.0 °F 93% 30.03 in 6.0 mi SSW 3.5 mph - N/A   Mostly Cloudy
8:47 PM 42.8 °F 39.3 °F 41.0 °F 93% 30.04 in 4.0 mi South 5.8 mph - N/A Fog Patches of Fog
8:54 PM 42.8 °F 39.3 °F 41.0 °F 93% 30.05 in 4.0 mi South 5.8 mph - N/A Fog Patches of Fog
9:28 PM 44.6 °F 43.1 °F 42.8 °F 93% 30.04 in 0.5 mi South 3.5 mph - N/A Fog Fog
9:38 PM 44.6 °F 42.2 °F 42.8 °F 93% 30.04 in 0.2 mi SSE 4.6 mph - N/A Fog Fog
9:54 PM 42.8 °F 41.1 °F 41.0 °F 93% 30.05 in 0.2 mi SSE 3.5 mph - N/A Fog Fog
10:25 PM 42.8 °F 39.3 °F 39.2 °F 87% 30.05 in 0.5 mi SSW 5.8 mph - N/A Fog Fog
10:40 PM 42.8 °F 39.3 °F 41.0 °F 93% 30.06 in 1.0 mi SSW 5.8 mph - N/A Fog Patches of Fog
10:54 PM 44.1 °F 40.8 °F 42.1 °F 93% 30.06 in 4.0 mi South 5.8 mph - N/A   Mostly Cloudy
11:36 PM 45.0 °F 41.2 °F 43.0 °F 93% 30.07 in 5.0 mi SE 6.9 mph - N/A   Clear
11:54 PM 44.1 °F 41.5 °F 43.0 °F 96% 30.07 in 3.0 mi ESE 4.6 mph - N/A   Clear